Retour au catalogue

RADIO 1

ActifRadio amateurPO
NORAD 11085·PAYLOAD·🇷🇺 Russia

Lancé Oct 26, 1978 depuis Plesetsk Cosmodrome

Loading…

Prochains Passages (prochaines 24 heures)

TLE

FraisSource: Space-Track

Époque: Sep 14, 2026, 14:19 UTC

1 11085U 78100B   26257.59706201  .00000006  00000-0 -36084-4 0  9995
2 11085  82.5544 355.8664 0013746 155.9977 266.8377 11.96569265 91511

Suivez RADIO 1 en temps réel avec AllMySat

Download on the App Store